Regional Weather Roundup
Issued by NWS Wilmington, NC

Home | Current Version | Previous Version | Text Only | Print | Product List | Glossary On
Versions: 1 2 3 4 5 6 7 8 9 10 11 12 13 14 15 16 17 18 19 20 21 22 23 24 25 26 27 28 29 30 31 32 33 34 35 36 37 38 39 40 41 42 43 44 45 46 47 48 49 50
718
ASUS42 KILM 061013
RWRILM
RWRILM
REGIONAL HOURLY WEATHER ROUNDUP
NATIONAL WEATHER SERVICE WILMINGTON NC
500 AM EST TUE DEC 06 2016

NOTE: "FAIR" INDICATES FEW OR NO CLOUDS BELOW 12,000 FEET WITH NO
SIGNIFICANT WEATHER AND/OR OBSTRUCTIONS TO VISIBILITY.

...............WFO WILMINGTON COUNTY WARNING AREA...............

......COASTAL NC AND SC COUNTIES......

CITY           SKY/WX    TMP DP  RH WIND       PRES   REMARKS
WILMINGTON     LGT RAIN  48  48 100 E12       29.92F
N MYRTLE BEACH CLOUDY    50  49  96 E10G21    29.88F
MYRTLE BEACH   CLOUDY    54  48  82 E16G22    29.89F

......INLAND NC AND SC COUNTIES.......

CITY           SKY/WX    TMP DP  RH WIND       PRES   REMARKS
LUMBERTON      RAIN      46  45  96 E7        29.91F
ELIZABETHTOWN  NOT AVBL
WHITEVILLE     NOT AVBL
FLORENCE       LGT RAIN  50  49  96 E10       29.88S
DARLINGTON     LGT RAIN  48  46  93 NE8       29.90S
KINGSTREE      RAIN      52  50  93 CALM      29.89R
HARTSVILLE     CLOUDY    46  45  93 E13       29.88R
BENNETTSVILLE  LGT RAIN  50  48  93 E10       29.89S
CONWAY         LGT RAIN  50  48  93 E8        29.87F
GEORGETOWN     HVY RAIN  54  52  94 E12G17    29.88
MARION         RAIN      46  46 100 NE10      29.88F

....................REST OF NORTH CAROLINA......................

.........EASTERN NC.........

CITY           SKY/WX    TMP DP  RH WIND       PRES   REMARKS
CAPE HATTERAS  LGT RAIN  52  50  93 NE10G17   30.01F FOG
JACKSONVILLE   LGT RAIN  48  47  96 E18G24    29.93F
MOREHEAD CITY  RAIN      51  49  92 E7        29.98F FOG
KENANSVILLE    NOT AVBL
NEW BERN       LGT RAIN  49  47  93 E12       29.98F
ELIZABETH CITY LGT RAIN  49  46  90 NE8       30.04F

.........CENTRAL NC.........

CITY           SKY/WX    TMP DP  RH WIND       PRES   REMARKS
RALEIGH DURHAM MOCLDY    47  42  83 E8        29.98S
ROCKY MOUNT    CLOUDY    46  46 100 NE5       29.99F
ROANOKE RAPIDS NOT AVBL
FAYETTEVILLE   CLOUDY    48  44  86 NE8       29.92F
HOFFMAN        LGT RAIN  47  45  90 E7        29.90F

.........WESTERN NC.........

CITY           SKY/WX    TMP DP  RH WIND       PRES   REMARKS
CHARLOTTE      LGT RAIN  48  45  89 NE10G20   29.90F FOG
GREENSBORO     CLOUDY    46  43  89 NE7       29.95F
HICKORY        NOT AVBL
BOONE          NOT AVBL
ASHEVILLE      NOT AVBL

.....................REST OF SOUTH CAROLINA.....................

.........EASTERN SC.........

CITY           SKY/WX    TMP DP  RH WIND       PRES   REMARKS
CHARLESTON     HVY RAIN  59  57  93 SE14      29.84R FOG
BEAUFORT MCAS  HVY RAIN  58  57  97 NE8       29.83F FOG
HILTON HEAD    DRIZZLE   61  61 100 N8G15     29.83F

.........CENTRAL SC.........

CITY           SKY/WX    TMP DP  RH WIND       PRES   REMARKS
COLUMBIA       CLOUDY    54  52  93 NE7       29.82F
ORANGEBURG     LGT RAIN  55  54  96 SE10G21   29.79F
SUMTER SHAW    LGT RAIN  53  51  95 NE10      29.82F

.........WESTERN SC.........

CITY           SKY/WX    TMP DP  RH WIND       PRES   REMARKS
GREENVILLE     NOT AVBL
ROCK HILL      LGT RAIN  48  47  96 VRB6      29.89F FOG
ANDERSON       LGT RAIN  49  47  93 NE9       29.84S FOG
CLEMSON        NOT AVBL
GREENWOOD      CLOUDY    49  48  97 NE10      29.83F FOG


...................COASTAL AND OFFSHORE REPORTS..................

................LOCAL PIERS AND NC RESERVE................


STATION/POSITION TIME  SKY/WX   TEMP    WIND        PRES    VSBY
                                AIR SEA DIR/SP/G
                 (UTC)          (F)     (DEG/KT/KT) (MB)    (MI)
JOHNY MRCER PIER 0942            52 62   50/ 25/ 28 1012.5F
NC RESRV MASNBRO 0845            49      60/  8     1014.0
OCEAN CREST PIER NOT AVBL
SPRINGMAID  PIER NOT AVBL


................COASTAL AND OFFSHORE BUOYS................


STATION/POSITION TIME  SKY/WX   TEMP    WIND        PRES    VSBY
                                AIR SEA DIR/SP/G
                 (UTC)          (F)     (DEG/KT/KT) (MB)    (MI)
DIMNDSHOAL 41025 0950            60 76   30/ 21/ 25 1015.6F
WVE H/P(F/S)=  5/ 8 SWL H/P/D(F/S/D)=  2/ 80/11

CAPE LOOKOUT     1000            54      30/ 21/ 24 1014.9F
ONSLOW BAY 41036 NOT AVBL
ONSLOW BAY 41064 0908            54 70   50/ 21/ 27 1013.8F
ONSLOW BAY 41159 NOT AVBL
5SE WRITBC 41038 0908            50 62   60/ 16/ 29 1013.7F
MASNBO INL 41110 0959               62                N/A
WVE H/P(F/S)=  5/ 6

WILM HARBR 41108 0956               62                N/A
WVE H/P(F/S)=  5/ 6

27SE WRITB 41037 0908            59 67   80/ 23/ 31 1013.1F
FRYING PAN 41013 1000            68 74   40/ 21/ 27 1011.5
SUNST NRSH 41024 0908            51 60   60/ 16/ 21 1011.9F
CAPRS NRSH 41029 0908            59 61   60/ 23/ 29 1009.9F
EDISTO     41004 0950            71 74   60/ 19/ 23 1008.9F
WVE H/P(F/S)=  7/ 6



..........OFFSHORE BUOYS BEYOND 100 NM OFFSHORE...........
.....IN A TRIANGLE---HAT TO BERMUDA TO BAHAMAS TO HAT.....


STATION/POSITION TIME  SKY/WX   TEMP    WIND        PRES    VSBY
                                AIR SEA DIR/SP/G
                 (UTC)          (F)     (DEG/KT/KT) (MB)    (MI)
150E HAT   41001 NOT AVBL
W BERMUDA  41048 0950            73 73  220/ 19/ 23 1015.3F
WVE H/P(F/S)=  7/ 6 SWL H/P/D(F/S/D)=  2/ 20/11

ATLANTIC S 41049 0950            70 76  300/  4/  6 1020.1R
WVE H/P(F/S)=  7/11 SWL H/P/D(F/S/D)=  7/350/11

E BAHAMAS  41046 0950            75 78  100/  8/ 12 1018.8R
WVE H/P(F/S)=  6/10 SWL H/P/D(F/S/D)=  7/10

NE BAHAMAS 41047 1000            76 78  190/ 14/ 16 1017.8
120E CANVRL41010 NOT AVBL

END




USA.gov is the U.S. government's official web portal to all federal, state and local government web resources and services.